When you browse on this site, cookies collect data to enhance your experience and personalize the content and advertising you see.
Visit our Privacy Policy to learn more. By continuing to use the site, you agree to this use of cookies and data.

Hourly Weather Kitzbuhel

Today, 10 August, Monday

Time Temperature Precipitation Wind Pressure Humidity
00:00 +16°C° 0 mm 1 mps 679 mmHg 83%
01:00 +16°C° 0 mm 2 mps 679 mmHg 84%
02:00 +16°C° 0 mm 2 mps 679 mmHg 83%
03:00 +16°C° 0 mm 2 mps 679 mmHg 83%
04:00 +16°C° 0 mm 2 mps 678 mmHg 82%
05:00 +18°C° 0 mm 1 mps 679 mmHg 79%
06:00 +20°C° 0 mm 1 mps 679 mmHg 76%
07:00 +21°C° 0 mm 1 mps 679 mmHg 72%
08:00 +23°C° 0 mm 1 mps 680 mmHg 65%
09:00 +26°C° 0 mm 1 mps 680 mmHg 57%
10:00 +28°C° 0 mm 1 mps 680 mmHg 49%
11:00 +29°C° 0.1 mm 1 mps 680 mmHg 47%
12:00 +29°C° 0.1 mm 1 mps 680 mmHg 44%
13:00 +30°C° 0.1 mm 2 mps 680 mmHg 41%
14:00 +29°C° 0.2 mm 2 mps 680 mmHg 43%
15:00 +29°C° 0.2 mm 2 mps 680 mmHg 46%
16:00 +28°C° 0.2 mm 2 mps 680 mmHg 48%
17:00 +26°C° 0.5 mm 1 mps 679 mmHg 61%
18:00 +24°C° 0.5 mm 1 mps 679 mmHg 73%
19:00 +20°C° 0.5 mm 0 mps 678 mmHg 86%
20:00 +21°C° 0.1 mm 1 mps 678 mmHg 86%
21:00 +20°C° 0.1 mm 1 mps 678 mmHg 87%
22:00 +19°C° 0.1 mm 1 mps 678 mmHg 88%
23:00 +18°C° 0 mm 1 mps 678 mmHg 87%

Tomorrow, 11 August, Tuesday

Time Temperature Precipitation Wind Pressure Humidity
00:00 +18°C° 0 mm 1 mps 679 mmHg 87%
01:00 +18°C° 0 mm 1 mps 679 mmHg 86%
02:00 +18°C° 0 mm 1 mps 679 mmHg 85%
03:00 +16°C° 0 mm 1 mps 678 mmHg 85%
04:00 +16°C° 0 mm 1 mps 678 mmHg 84%
05:00 +18°C° 0 mm 1 mps 679 mmHg 82%
06:00 +20°C° 0 mm 1 mps 679 mmHg 79%
07:00 +21°C° 0 mm 1 mps 679 mmHg 77%
08:00 +23°C° 0.1 mm 1 mps 680 mmHg 69%
09:00 +25°C° 0.1 mm 1 mps 680 mmHg 60%
10:00 +28°C° 0.1 mm 1 mps 681 mmHg 52%
11:00 +28°C° 0.3 mm 1 mps 681 mmHg 51%
12:00 +29°C° 0.3 mm 1 mps 681 mmHg 49%
13:00 +29°C° 0.3 mm 1 mps 681 mmHg 48%
14:00 +28°C° 0.9 mm 1 mps 680 mmHg 57%
15:00 +27°C° 0.9 mm 1 mps 680 mmHg 66%
16:00 +25°C° 0.9 mm 1 mps 680 mmHg 76%
17:00 +23°C° 3 mm 1 mps 679 mmHg 82%
18:00 +20°C° 3 mm 2 mps 679 mmHg 89%
19:00 +18°C° 3 mm 2 mps 679 mmHg 95%
20:00 +18°C° 0.3 mm 2 mps 679 mmHg 94%
21:00 +17°C° 0.3 mm 2 mps 679 mmHg 92%
22:00 +17°C° 0.3 mm 2 mps 680 mmHg 91%
23:00 +17°C° 0 mm 2 mps 679 mmHg 90%

Day after tomorrow, 12 August, Wednesday

Time Temperature Precipitation Wind Pressure Humidity
00:00 +16°C° 0 mm 1 mps 679 mmHg 88%
01:00 +16°C° 0 mm 1 mps 679 mmHg 87%
02:00 +16°C° 0 mm 1 mps 679 mmHg 86%
03:00 +15°C° 0 mm 1 mps 679 mmHg 85%
04:00 +15°C° 0 mm 1 mps 679 mmHg 84%
05:00 +18°C° 0.2 mm 1 mps 679 mmHg 83%
06:00 +19°C° 0.2 mm 1 mps 679 mmHg 82%
07:00 +20°C° 0.2 mm 1 mps 679 mmHg 80%
08:00 +22°C° 0 mm 1 mps 680 mmHg 71%
09:00 +25°C° 0 mm 1 mps 680 mmHg 62%
10:00 +27°C° 0 mm 1 mps 681 mmHg 52%
11:00 +28°C° 0.2 mm 1 mps 681 mmHg 50%
12:00 +28°C° 0.2 mm 1 mps 681 mmHg 48%
13:00 +29°C° 0.2 mm 1 mps 681 mmHg 46%
14:00 +28°C° 0.4 mm 1 mps 681 mmHg 49%
15:00 +28°C° 0.4 mm 1 mps 680 mmHg 52%
16:00 +28°C° 0.4 mm 1 mps 680 mmHg 55%
17:00 +26°C° 1 mm 1 mps 680 mmHg 65%
18:00 +24°C° 1 mm 1 mps 680 mmHg 76%
19:00 +20°C° 1 mm 0 mps 679 mmHg 86%
20:00 +21°C° 0.1 mm 1 mps 679 mmHg 86%
21:00 +20°C° 0.1 mm 1 mps 679 mmHg 86%
22:00 +19°C° 0.1 mm 1 mps 679 mmHg 87%
23:00 +18°C° 0 mm 2 mps 679 mmHg 86%

13 August, Thursday

Time Temperature Precipitation Wind Pressure Humidity
00:00 +17°C° 0 mm 2 mps 679 mmHg 85%
01:00 +17°C° 0 mm 2 mps 679 mmHg 85%
02:00 +17°C° 0 mm 2 mps 679 mmHg 84%
03:00 +17°C° 0 mm 2 mps 679 mmHg 83%
04:00 +16°C° 0 mm 1 mps 678 mmHg 82%
05:00 +19°C° 0.1 mm 1 mps 679 mmHg 80%
06:00 +20°C° 0.1 mm 1 mps 679 mmHg 79%
07:00 +21°C° 0.1 mm 1 mps 679 mmHg 77%
08:00 +23°C° 0 mm 1 mps 680 mmHg 68%
09:00 +26°C° 0 mm 1 mps 680 mmHg 60%
10:00 +28°C° 0 mm 1 mps 681 mmHg 51%
11:00 +28°C° 0.2 mm 1 mps 681 mmHg 49%
12:00 +29°C° 0.2 mm 1 mps 681 mmHg 47%
13:00 +29°C° 0.2 mm 1 mps 681 mmHg 46%
14:00 +28°C° 0.7 mm 2 mps 680 mmHg 53%
15:00 +27°C° 0.7 mm 2 mps 680 mmHg 60%
16:00 +26°C° 0.7 mm 2 mps 679 mmHg 67%
17:00 +24°C° 1.6 mm 2 mps 679 mmHg 74%
18:00 +21°C° 1.6 mm 2 mps 679 mmHg 82%
19:00 +20°C° 1.6 mm 1 mps 679 mmHg 89%
20:00 +20°C° 0.5 mm 1 mps 679 mmHg 90%
21:00 +18°C° 0.5 mm 2 mps 679 mmHg 91%
22:00 +17°C° 0.5 mm 2 mps 679 mmHg 92%
23:00 +17°C° 0 mm 2 mps 678 mmHg 91%

14 August, Friday

Time Temperature Precipitation Wind Pressure Humidity
00:00 +16°C° 0 mm 1 mps 678 mmHg 89%
01:00 +16°C° 0 mm 1 mps 678 mmHg 87%
02:00 +16°C° 0 mm 1 mps 678 mmHg 87%
03:00 +16°C° 0 mm 1 mps 677 mmHg 86%
04:00 +15°C° 0 mm 1 mps 677 mmHg 85%
05:00 +16°C° 0.1 mm 1 mps 678 mmHg 85%
06:00 +18°C° 0.1 mm 1 mps 678 mmHg 85%
07:00 +19°C° 0.1 mm 1 mps 678 mmHg 85%
08:00 +20°C° 0.2 mm 1 mps 678 mmHg 82%
09:00 +21°C° 0.2 mm 1 mps 679 mmHg 78%
10:00 +22°C° 0.2 mm 1 mps 679 mmHg 75%
11:00 +22°C° 1.4 mm 1 mps 679 mmHg 80%
12:00 +22°C° 1.4 mm 1 mps 679 mmHg 84%
13:00 +22°C° 1.4 mm 1 mps 678 mmHg 89%
14:00 +21°C° 1.6 mm 1 mps 678 mmHg 89%
15:00 +21°C° 1.6 mm 1 mps 678 mmHg 90%
16:00 +21°C° 1.6 mm 1 mps 678 mmHg 91%
17:00 +20°C° 0.9 mm 1 mps 678 mmHg 93%
18:00 +19°C° 0.9 mm 1 mps 678 mmHg 94%
19:00 +18°C° 0.9 mm 1 mps 678 mmHg 96%
20:00 +18°C° 0.2 mm 1 mps 678 mmHg 95%
21:00 +16°C° 0.2 mm 1 mps 678 mmHg 94%
22:00 +16°C° 0.2 mm 1 mps 678 mmHg 94%
23:00 +16°C° 0 mm 1 mps 678 mmHg 93%

15 August, Saturday

Time Temperature Precipitation Wind Pressure Humidity
00:00 +16°C° 0 mm 1 mps 678 mmHg 92%
01:00 +16°C° 0 mm 1 mps 678 mmHg 91%
02:00 +15°C° 0 mm 1 mps 678 mmHg 91%
03:00 +15°C° 0 mm 1 mps 678 mmHg 91%
04:00 +14°C° 0 mm 1 mps 678 mmHg 91%
05:00 +15°C° 0 mm 1 mps 678 mmHg 89%
06:00 +16°C° 0 mm 1 mps 678 mmHg 88%
07:00 +16°C° 0 mm 0 mps 678 mmHg 86%
08:00 +20°C° 0 mm 1 mps 679 mmHg 77%
09:00 +22°C° 0 mm 1 mps 679 mmHg 68%
10:00 +24°C° 0 mm 1 mps 680 mmHg 58%
11:00 +24°C° 0 mm 1 mps 680 mmHg 55%
12:00 +25°C° 0 mm 2 mps 679 mmHg 52%
13:00 +26°C° 0 mm 2 mps 679 mmHg 49%
14:00 +25°C° 0 mm 2 mps 679 mmHg 52%
15:00 +25°C° 0 mm 2 mps 679 mmHg 54%
16:00 +25°C° 0 mm 2 mps 679 mmHg 57%
17:00 +23°C° 0.1 mm 2 mps 678 mmHg 69%
18:00 +21°C° 0.1 mm 1 mps 678 mmHg 81%
19:00 +19°C° 0.1 mm 1 mps 678 mmHg 92%
20:00 +18°C° 0 mm 1 mps 678 mmHg 93%
21:00 +16°C° 0 mm 1 mps 678 mmHg 95%
22:00 +15°C° 0 mm 1 mps 678 mmHg 96%
23:00 +15°C° 0 mm 1 mps 678 mmHg 95%
Show more